Location: Bayview
(38.0070°N, 122.3188°W)
Time: 13:54:50
(UTC+00:00)

ISS - Visible Passes

Search period start: 29 September 2022 00:00
Search period end: 09 October 2022 00:00
Orbit: 414 x 417 km, 51.6° (Epoch: 29 September)

Date Brightness Start Highest point End Pass type
(mag) Time Alt. Az. Time Alt. Az. Time Alt. Az.
29 Sep -1.3 03:05:30 10° N 03:06:54 12° NNE 03:07:55 11° NE visible
30 Sep -1.6 03:52:26 10° NNW 03:53:57 21° NNW 03:53:57 21° NNW visible
01 Oct -2.0 03:03:55 10° NNW 03:06:31 20° NNE 03:07:09 19° NE visible
02 Oct -1.6 02:15:29 10° NNW 02:17:30 15° NNE 02:19:30 10° ENE visible
02 Oct -2.1 03:51:18 10° NW 03:53:16 32° NW 03:53:16 32° NW visible
03 Oct -3.3 03:02:35 10° NW 03:05:48 43° NE 03:06:34 36° ENE visible
04 Oct -2.5 02:13:55 10° NNW 02:16:51 27° NNE 02:19:46 10° E visible
04 Oct -1.9 03:50:32 10° WNW 03:52:51 29° WSW 03:52:51 29° WSW visible
05 Oct -3.4 03:01:27 10° WNW 03:04:46 62° SW 03:06:21 27° SSE visible
06 Oct -3.8 02:12:31 10° NW 02:15:52 70° NE 02:19:11 10° ESE visible
06 Oct -0.7 03:51:15 10° WSW 03:52:08 11° SW 03:52:55 10° SW visible
07 Oct -1.3 03:00:52 10° W 03:03:23 20° SW 03:05:54 10° S visible
08 Oct -2.2 02:11:26 10° WNW 02:14:33 36° SW 02:17:39 10° SSE visible
